Simultaneous Nadir Overpasses (SNOs) Predictions

Prediction of SNOs between FY3D and TERRA Satellite Orbit:

Table of predicted SNOs for the next 14.0 days since TLE Epoch: 6/5/2021
Index Date (FY3D) Time (FY3D) Lat,Lon (FY3D) SZA (FY3D ) Date (TERRA) Time (TERRA) Lat,Lon (TERRA) SZA (TERRA ) Distance(km) Time Diff (sec)
1 06/06/2021 20:48:58 69.75,-132.51 46.91 06/06/2021 20:49:21 69.78,-132.51 46.93 3.15 23
2 06/06/2021 21:39:39 -69.66, 34.95 133.19 06/06/2021 21:38:51 -69.67, 34.98 133.19 1.32 48
3 06/09/2021 13:05:17 69.81, -16.65 46.73 06/09/2021 13:05:47 69.79, -16.62 46.71 2.41 30
4 06/09/2021 13:55:57 -69.66, 150.89 133.43 06/09/2021 13:55:17 -69.69, 150.87 133.41 2.72 40
5 06/12/2021 05:21:36 69.82, 99.28 46.54 06/12/2021 05:22:14 69.80, 99.28 46.53 1.53 38
6 06/12/2021 06:12:17 -69.72, -93.25 133.56 06/12/2021 06:11:44 -69.70, -93.23 133.58 1.90 33
7 06/14/2021 21:37:55 69.83,-144.79 46.42 06/14/2021 21:38:41 69.81,-144.83 46.40 2.02 46
8 06/14/2021 22:28:36 -69.72, 22.69 133.70 06/14/2021 22:28:11 -69.71, 22.66 133.70 1.16 25
9 06/17/2021 13:54:14 69.84, -28.87 46.34 06/17/2021 13:55:08 69.83, -28.94 46.32 3.06 54
10 06/17/2021 14:44:55 -69.73, 138.62 133.78 06/17/2021 14:44:38 -69.73, 138.56 133.78 2.38 17
11 06/17/2021 15:35:25 68.88, -52.87 45.38 06/17/2021 15:34:17 68.94, -54.83 45.44 78.78 68



Historial Predications of SNOs between FY3D and TERRA
